Location: El Escorial
(40.5940°N, 4.1449°W)
Time: 05:23:33
(UTC+00:00)

Daily predictions for brighter satellites

Satellite Brightness Start Highest point End
(mag) Time Altitude Azimuth Time Altitude Azimuth Time Altitude Azimuth
SL-16 R/B 3.8 00:09:28 10° N 00:13:48 28° NE 00:13:48 28° NE
Cosmos 2297 Rocket 3.4 00:28:54 38° NNE 00:28:54 38° NNE 00:32:21 10° NNE
Cosmos 2344 4.5 00:23:52 10° NNW 00:33:46 79° NE 00:38:10 48° SE
Cosmos 2219 4.4 00:41:47 38° N 00:41:47 38° N 00:45:29 10° NNE
Cosmos 2237 Rocket 3.7 00:38:26 10° NNW 00:41:11 29° NW 00:41:11 29° NW
CZ-2D R/B 3.8 01:04:32 10° NE 01:08:00 27° ENE 01:08:00 27° ENE
SL-16 R/B 3.6 01:09:25 35° E 01:10:13 37° ENE 01:15:50 10° N
Cosmos 2227 Rocket 3.5 01:18:31 34° NNW 01:18:31 34° NNW 01:22:38 10° N
Cosmos 2279 Rocket 4.3 01:29:43 63° N 01:29:43 63° N 01:34:50 10° N
Resurs 1-4 Rocket 2.9 01:37:39 10° NNE 01:41:36 47° NE 01:41:36 47° NE
SJ 16-02 3.5 01:46:52 22° NNW 01:46:52 22° NNW 01:48:46 10° N
Cosmos 2098 Rocket 4.3 01:40:33 10° N 01:46:21 60° E 01:46:32 60° E
NOSS 3-1 (C) 3.8 01:48:09 53° NNW 01:48:09 53° NNW 01:53:33 10° NNE
Cosmos 2263 Rocket 2.6 01:56:40 56° ENE 01:56:40 56° ENE 02:01:15 10° NNE
SL-16 R/B 3.8 01:53:18 10° NW 01:55:38 23° NW 01:55:38 23° NW
Cosmos 724 4.4 01:58:22 10° NNW 02:03:51 74° N 02:03:51 74° N
Cosmos 1937 Rocket 4.2 02:07:18 50° NNW 02:07:18 50° NNW 02:11:30 10° NNE
Cosmos 2297 Rocket 4.4 02:10:42 13° WNW 02:11:41 13° NW 02:14:18 10° NNW
ATLAS CENTAUR R/B 3.2 02:13:46 26° ENE 02:13:46 26° ENE 02:15:48 10° NE
Cosmos 1726 4.4 02:14:19 24° NNE 02:14:19 24° NNE 02:15:58 10° NNE
ADEOS II 2.8 02:09:25 10° NNE 02:14:27 45° E 02:14:31 45° E
CZ-4B R/B 3.9 02:12:42 10° NNE 02:16:40 53° ENE 02:16:40 53° ENE
Cosmos 2266 Rocket 3.9 02:16:49 10° N 02:22:57 72° W 02:22:57 72° W
USA 229 DEB 4.3 02:24:11 40° WNW 02:25:16 43° NW 02:31:45 10° NNE
USA 229 4.2 02:24:18 40° WNW 02:25:22 43° NW 02:31:51 10° NNE
Meteor 2-10 4.1 02:27:12 81° ESE 02:27:15 81° E 02:32:58 10° NNE
Cosmos 2084 4.3 02:28:47 48° NE 02:28:47 48° NE 02:32:04 10° NE
GEOS 3 Rocket 3.8 02:23:02 10° NNE 02:28:23 65° NW 02:28:24 65° NW
Meteor 1-21 Rocket 4.4 02:25:08 10° N 02:30:39 65° E 02:31:40 54° SE
CBERS-1 4.0 02:26:08 10° NNE 02:31:10 73° E 02:31:10 73° E
ATLAS 3B CENTAUR R/B 4.5 02:13:26 10° W 02:32:02 43° SSW 02:41:15 10° SE
ARIANE 5 R/B 3.7 02:30:00 10° NNE 02:34:49 36° E 02:36:11 31° SE
NOSS 3-1 (A) 3.9 02:36:02 42° WNW 02:36:36 43° NW 02:42:36 10° NNE
SL-19 R/B 4.5 02:37:46 59° S 02:39:07 81° WSW 02:45:19 10° NNW
Cosmos 1603 3.6 02:33:40 10° NNW 02:39:05 72° W 02:39:05 72° W
Cosmos 2150 Rocket 3.8 02:42:28 85° SE 02:42:33 86° ESE 02:47:49 10° NNE
CZ-2D R/B 3.0 02:44:23 10° N 02:49:18 36° WNW 02:49:18 36° WNW
Cosmos 1703 4.0 02:48:38 10° N 02:52:29 48° E 02:52:42 47° E
SL-16 R/B 3.3 02:54:31 35° W 02:54:31 35° W 02:59:27 10° NNW
Cosmos 1125 Rocket 3.6 02:54:00 60° SSE 02:54:49 72° ESE 03:00:05 10° NNE
Cosmos 1943 3.1 02:52:17 10° NNW 02:57:49 61° WSW 02:57:52 61° WSW
Cosmos 1953 3.3 02:59:36 38° NNW 02:59:36 38° NNW 03:02:30 10° N
Nadezhda 2 Rocket 4.3 02:54:26 10° N 03:00:38 84° W 03:02:51 42° S
USA 215 3.4 02:55:08 10° NE 03:01:37 62° SE 03:03:50 41° SSW
IRS-1C 4.0 02:57:14 10° NNE 03:02:36 87° ESE 03:03:51 55° S
IRS-1D 3.7 03:00:43 10° N 03:05:42 51° WNW 03:06:07 50° W
Cosmos 1328 4.2 03:02:22 10° N 03:06:21 60° E 03:07:02 51° SE
OAO 2 Rocket 4.0 03:10:53 41° SSE 03:10:53 41° SSE 03:15:46 10° E
CZ-2D R/B 4.0 03:08:08 10° NNE 03:12:01 51° E 03:12:51 42° SE
Meteor 2-8 Rocket 4.4 03:15:17 33° S 03:18:16 86° E 03:24:24 10° N
Cosmos 1606 Rocket 3.6 03:19:24 48° S 03:20:36 81° E 03:25:05 10° N
Hubble Space Telescope 3.2 03:22:46 11° SSE 03:22:46 11° SSE 03:23:11 10° SE
Atlas Centaur 2 3.2 03:20:39 32° S 03:21:38 34° S 03:28:10 10° ESE
Resurs 1-4 Rocket 3.8 03:18:43 10° NNW 03:22:10 18° WNW 03:22:40 18° WNW
Cosmos 1602 Rocket 4.5 03:18:26 10° NNW 03:21:32 32° WNW 03:21:32 32° WNW
NOSS 2-2 (E) 3.2 03:22:45 61° SE 03:23:00 63° ESE 03:26:45 10° NE
NOSS 2-2 (D) 3.6 03:23:29 44° SE 03:23:55 47° ESE 03:27:29 10° NE
STPSAT 2 (USA 217) 4.5 03:21:04 10° NNW 03:25:35 90° E 03:29:16 15° SSE
Meteor 2-16 Rocket 4.4 03:21:20 10° NNW 03:27:26 63° W 03:30:36 29° SSW
Cosmos 1908 3.7 03:31:23 42° WNW 03:31:23 42° WNW 03:35:00 10° N
IDEFIX/ARIANE 42P 2.6 03:26:02 10° NNE 03:31:16 81° ESE 03:34:08 28° S
Cosmos 1417 Rocket 4.4 03:29:11 30° SSW 03:32:32 76° W 03:38:47 10° N
Cosmos 1726 Rocket 3.5 03:33:33 37° S 03:35:18 88° W 03:39:48 10° N
MSX 4.2 03:31:28 10° NNE 03:37:12 65° ESE 03:42:02 15° S
Cosmos 2228 3.0 03:36:23 44° SW 03:37:34 64° W 03:41:57 10° N
Cosmos 1048 Rocket 4.2 03:34:24 10° NNW 03:39:21 47° WSW 03:41:28 30° SSW
Cosmos 2263 Rocket 3.8 03:38:22 17° WNW 03:40:10 19° NW 03:44:05 10° N
Cosmos 1844 3.8 03:37:25 27° SSW 03:40:43 82° ESE 03:46:30 10° NNE
Meteor 1-28 Rocket 3.6 03:41:31 41° W 03:41:31 41° W 03:45:00 10° NNW
SL-08 R/B 3.8 03:44:25 32° SW 03:46:04 43° W 03:50:47 10° NNW
Cosmos 1356 Rocket 3.4 03:46:41 37° SW 03:48:08 62° W 03:52:13 10° N
Cosmos 1386 Rocket 4.3 03:42:22 10° N 03:48:24 84° W 03:54:25 10° S
CZ-2C R/B 2.6 03:46:54 10° NNE 03:50:42 89° WNW 03:52:32 29° SSW
ATLAS CENTAUR R/B 3.1 03:49:57 18° WNW 03:51:01 19° NW 03:53:56 10° N
Cosmos 1300 2.6 03:49:36 31° SSW 03:51:20 82° W 03:55:09 10° N
ADEOS II 3.4 03:49:47 10° NNW 03:53:50 23° WNW 03:55:27 20° W
ERS-2 2.8 03:51:20 10° SSE 03:54:53 56° ENE 03:58:28 10° N
Spot 4 Rocket 4.2 03:50:27 10° N 03:55:31 58° WNW 03:58:31 24° SW
Cosmos 1900 4.4 03:52:31 10° NW 03:57:37 63° WSW 04:02:41 10° SSE
CZ-4C R/B 2.8 03:54:42 12° SSE 03:57:44 87° ENE 04:01:07 10° NNW
Cosmos 1269 Rocket 4.0 03:56:11 10° NNW 04:01:31 85° WSW 04:06:48 10° SSE
Cosmos 2278 Rocket 3.9 03:57:05 10° SSE 04:01:54 29° ESE 04:06:43 10° NE
Cosmos 1844 Rocket 2.9 03:59:23 24° SW 04:02:33 53° WNW 04:08:01 10° NNE
CSL-04 DEB 4.2 04:01:04 10° S 04:04:56 63° WSW 04:08:52 10° NNW
COSMOS 2441 4.3 04:01:12 10° N 04:06:02 79° WNW 04:10:14 14° SSW
NOSS 2-2 (C) 3.4 04:05:43 28° WSW 04:07:16 51° NW 04:11:00 10° NNE
Lacrosse 5 rocket 3.0 04:04:16 11° S 04:07:59 31° SE 04:12:03 10° ENE
Cosmos 883 Rocket 4.5 04:03:52 10° S 04:10:05 79° W 04:16:26 10° N
ARIANE 5 R/B 3.6 04:09:20 10° N 04:13:45 28° WNW 04:16:31 18° WSW
USA 281 4.0 04:07:57 10° NNE 04:14:21 52° ESE 04:20:41 10° S
SeaSat 1 3.0 04:12:16 10° NE 04:17:08 56° ESE 04:21:58 10° SSW
Cosmos 1745 Rocket 4.3 04:11:30 10° NNW 04:17:24 46° W 04:23:13 10° SSW
Delta 2 Rocket 4.1 04:17:04 22° SW 04:18:04 25° SSW 04:21:09 10° SE
Cosmos 2058 Rocket 3.5 04:18:49 16° SW 04:22:02 43° WNW 04:26:17 10° N
H-2A R/B 2.1 04:18:17 10° S 04:22:13 47° W 04:26:12 10° NNW
Cosmos 1867 4.4 04:19:26 10° NNW 04:24:49 56° NE 04:30:09 10° SE
Landsat 5 3.8 04:26:57 10° S 04:30:42 40° W 04:34:36 10° NNW
Cosmos 2058 3.3 04:27:31 10° N 04:31:43 68° E 04:35:53 10° SSE
BREEZE-M TANK 4.3 04:27:18 10° WNW 04:31:44 52° SSW 04:49:04 10° SE
DEBRIS 3.7 04:30:19 10° WNW 04:32:02 19° NNW 04:33:44 10° NE
CZ-2C R/B 2.2 04:29:03 10° N 04:33:40 80° WNW 04:38:23 10° SSW
Cosmos 1408 3.7 04:30:26 10° N 04:34:02 48° E 04:37:36 10° SSE
CZ-4B R/B 1.7 04:33:04 10° SSE 04:36:15 64° ENE 04:39:23 10° N
CZ-3B R/B 3.5 04:37:38 10° SSE 04:38:57 14° ESE 04:40:49 10° ENE
Cosmos 1892 2.6 04:37:31 10° N 04:41:22 77° W 04:45:09 10° S
In-Cosmos 22 Rocket 4.3 04:36:07 10° NNW 04:41:55 68° W 04:47:37 10° S
USA 215 4.0 04:38:19 10° NE 04:44:26 44° NNW 04:50:33 10° W
Cosmos 1340 4.3 04:43:22 10° N 04:46:56 39° ENE 04:50:28 10° SSE
ATLAS 2AS CENTAUR R/B 3.9 04:42:00 10° S 04:49:33 51° ESE 04:57:12 10° NE
Cosmos-2242 4.3 04:46:10 10° SSE 04:50:19 45° E 04:54:31 10° NNE
Meteor 1-31 Rocket 3.7 04:46:57 10° NNE 04:50:43 51° E 04:54:25 10° S
FENGYUN 3A 4.4 04:46:07 10° NNE 04:51:26 58° E 04:56:43 10° S
Cosmos 1484 Rocket 3.3 04:48:46 10° NNE 04:52:27 60° E 04:56:09 10° S
ALOS 3.0 04:48:33 10° NNE 04:53:10 58° E 04:57:46 10° S
OAO 2 Rocket 3.9 04:50:14 10° WSW 04:55:15 44° S 05:00:14 10° ESE
Cosmos 1709 Rocket 4.4 04:51:30 10° NNW 04:57:08 39° W 05:02:44 10° SSW
